{"data":{"norad_id":54848,"epoch":"2026-05-24T22:57:50.920704Z","epoch_age_seconds":74624,"freshness":"FRESH","line1":"1 54848U 22177AE  26144.95683936 -.00000957  00000+0 -25266-4 0  9991","line2":"2 54848  43.0032  50.9588 0001082 238.9197 121.1548 15.27567728188759","mean_motion":15.27567728,"eccentricity":0.0001082,"inclination_deg":43.0032,"raan_deg":50.9588,"arg_perigee_deg":238.9197,"mean_anomaly_deg":121.1548,"bstar":-2.5266e-5,"rev_number":18875,"period_min":94.267506023144,"perigee_km":482.34345875687,"apogee_km":483.82822738011,"semimajor_km":6861.2228430685,"source":"CELESTRAK","updated_at":"2026-05-25T13:38:17.725274Z"}}